Lee's Summit, MO

10:48 AM CST on January 16, 2017 (GMT -0600)
Lee's Summit Municipal

Weather History for KLXT - December, 2013

Change the Weather History Date:

Friday, December 6, 2013

  Actual Average (KMKC) Record (KMKC)
Temperature  
Mean Temperature 14 °F -  
Max Temperature 18 °F 44 °F 60 °F (2001)
Min Temperature 10 °F 29 °F 10 °F (2005)
Degree Days  
Heating Degree Days 51    
Moisture  
Dew Point -1 °F    
Average Humidity 50    
Maximum Humidity 61    
Minimum Humidity 38    
Precipitation  
Precipitation 0.00 in - - ()
Sea Level Pressure  
Sea Level Pressure 30.53 in    
Wind  
Wind Speed 13 mph (North)    
Max Wind Speed 16 mph    
Max Gust Speed 20 mph    
Visibility 10 miles    
Events Snow    
Averages and records for this station are not official NWS values.
T = Trace of Precipitation, MM = Missing Value Source: NWS Daily Summary

Daily Weather History Graph

Daily Weather History Graph

Search for Another Location

Airport or City:

Trip Planner

Search our weather history database for the weather conditions in past years. The results will help you decide how hot, cold, wet, or windy it might be!

Date:

Astronomy

Dec. 06, 2013 Rise Set
Actual Time 7:22 AM CST 4:55 PM CST
Civil Twilight 6:52 AM CST 5:24 PM CST
Nautical Twilight 6:19 AM CST 5:58 PM CST
Astronomical Twilight 5:46 AM CST 6:30 PM CST
Moon 10:29 AM CST (12/6) 9:26 PM CST (12/6)
Length of Visible Light 10h 32m
Length of Day
9h 32m
Waxing Crescent, 19% of the Moon is Illuminated
Dec 6
Waxing Crescent
Dec 9
First Quarter
Dec 17
Full
Dec 25
Last Quarter
Jan 1
New

Hourly Weather History & Observations

Time (CST) Temp. Windchill Dew Point Humidity Pressure Visibility Wind Dir Wind Speed Gust Speed Precip Events Conditions
12:53 AM 17.1 °F 2.5 °F 3.9 °F 56% 30.42 in 10.0 mi North 15.0 mph - N/A   Overcast
1:53 AM 17.1 °F 3.0 °F 3.9 °F 56% 30.41 in 9.0 mi North 13.8 mph - 0.00 in Snow Light Snow
2:53 AM 17.1 °F 4.3 °F 3.9 °F 56% 30.43 in 10.0 mi North 11.5 mph - 0.00 in   Overcast
3:53 AM 16.0 °F 1.1 °F 3.0 °F 57% 30.43 in 10.0 mi North 15.0 mph - N/A   Overcast
4:53 AM 15.1 °F -0.6 °F 3.0 °F 59% 30.44 in 10.0 mi North 16.1 mph - N/A   Overcast
5:53 AM 14.0 °F -1.4 °F 1.0 °F 56% 30.46 in 10.0 mi North 15.0 mph - N/A   Overcast
6:53 AM 12.9 °F 0.7 °F -0.0 °F 56% 30.47 in 10.0 mi North 9.2 mph - N/A   Overcast
7:53 AM 12.9 °F -3.4 °F -0.0 °F 56% 30.52 in 10.0 mi North 16.1 mph - N/A   Overcast
8:53 AM 12.9 °F -2.8 °F -2.0 °F 51% 30.51 in 10.0 mi North 15.0 mph - N/A   Overcast
9:53 AM 12.9 °F -1.6 °F -0.9 °F 54% 30.51 in 10.0 mi North 12.7 mph - N/A   Mostly Cloudy
10:53 AM 14.0 °F -0.8 °F -2.9 °F 47% 30.52 in 10.0 mi North 13.8 mph - N/A   Mostly Cloudy
11:53 AM 17.1 °F 3.6 °F -2.0 °F 43% 30.53 in 10.0 mi North 12.7 mph - N/A   Overcast
12:53 PM 18.0 °F 7.7 °F -2.9 °F 40% 30.53 in 10.0 mi North 8.1 mph 19.6 mph N/A   Overcast
1:53 PM 18.0 °F 6.1 °F -4.0 °F 38% 30.51 in 10.0 mi North 10.4 mph - N/A   Overcast
2:53 PM 18.0 °F 4.2 °F -2.9 °F 40% 30.52 in 10.0 mi NNW 13.8 mph - N/A   Overcast
3:53 PM 18.0 °F 4.2 °F -2.9 °F 40% 30.53 in 10.0 mi NNE 13.8 mph - N/A   Overcast
4:53 PM 17.1 °F 4.3 °F -2.0 °F 43% 30.56 in 10.0 mi North 11.5 mph - N/A   Overcast
5:53 PM 16.0 °F 3.6 °F -2.9 °F 43% 30.58 in 10.0 mi North 10.4 mph - N/A   Overcast
6:53 PM 15.1 °F -0.1 °F -2.9 °F 45% 30.61 in 10.0 mi North 15.0 mph - N/A   Overcast
7:53 PM 14.0 °F 1.2 °F -2.0 °F 49% 30.63 in 10.0 mi North 10.4 mph - N/A   Scattered Clouds
8:53 PM 12.9 °F -1.6 °F -2.0 °F 51% 30.66 in 10.0 mi North 12.7 mph - N/A   Clear
9:53 PM 12.0 °F 1.5 °F -0.9 °F 56% 30.68 in 10.0 mi North 6.9 mph - N/A   Clear
10:53 PM 10.9 °F -0.8 °F -0.0 °F 61% 30.68 in 10.0 mi North 8.1 mph - N/A   Clear
11:53 PM 10.9 °F -4.1 °F -0.9 °F 59% 30.70 in 10.0 mi North 12.7 mph - N/A   Clear